KI5NYZ Weather Reports


Display with metric or nautical units.
time (UTC)temp
F
wind
direction
speed
MPH
gust
MPH
rain 1hr
in
rain 24hr
in
rain mn
in
humidity
%
barometer
mb
20260509194528 93 234 7.0 14.0 0.00 0.00 0.00 13 1010.5
20260509193521 93 222 6.0 14.0 0.00 0.00 0.00 13 1010.6
20260509192520 92 230 5.0 9.0 0.00 0.00 0.00 14 1010.8
20260509191522 92 235 6.0 12.0 0.00 0.00 0.00 15 1010.9
20260509190522 91 241 9.0 18.0 0.00 0.00 0.00 15 1011.0
20260509185524 91 226 5.0 11.0 0.00 0.00 0.00 15 1011.1
20260509184522 91 240 9.0 12.0 0.00 0.00 0.00 16 1011.2
20260509183521 91 252 8.0 13.0 0.00 0.00 0.00 16 1011.3
20260509182519 90 228 6.0 13.0 0.00 0.00 0.00 18 1011.4
20260509181539 90 230 7.0 14.0 0.00 0.00 0.00 19 1011.6
20260509180518 90 256 9.0 13.0 0.00 0.00 0.00 17 1011.7
20260509175540 89 230 7.0 14.0 0.00 0.00 0.00 19 1011.9
20260509174539 89 246 9.0 16.0 0.00 0.00 0.00 18 1012.0
20260509173539 89 215 6.0 13.0 0.00 0.00 0.00 19 1012.1
20260509172520 88 219 5.0 13.0 0.00 0.00 0.00 19 1012.2
20260509171540 88 226 6.0 14.0 0.00 0.00 0.00 21 1012.4
20260509170524 87 195 6.0 12.0 0.00 0.00 0.00 21 1012.4
20260509165520 87 229 7.0 11.0 0.00 0.00 0.00 20 1012.5
20260509164521 86 218 5.0 11.0 0.00 0.00 0.00 21 1012.5
20260509163520 85 229 6.0 16.0 0.00 0.00 0.00 23 1012.5
20260509162521 85 226 6.0 14.0 0.00 0.00 0.00 25 1012.6
20260509161526 84 224 6.0 12.0 0.00 0.00 0.00 26 1012.7
20260509160522 84 217 6.0 12.0 0.00 0.00 0.00 26 1012.7
20260509155521 83 221 5.0 12.0 0.00 0.00 0.00 25 1012.7
20260509154522 82 224 5.0 13.0 0.00 0.00 0.00 28 1012.8
20260509153522 81 229 5.0 11.0 0.00 0.00 0.00 30 1012.7
20260509152521 80 211 4.0 9.0 0.00 0.00 0.00 33 1012.8
20260509151546 78 206 3.0 6.0 0.00 0.00 0.00 39 1012.9
20260509150519 76 212 3.0 7.0 0.00 0.00 0.00 43 1013.1
20260509145524 75 220 3.0 7.0 0.00 0.00 0.00 45 1013.1
20260509144520 74 239 3.0 10.0 0.00 0.00 0.00 47 1013.2
20260509143520 73 238 5.0 15.0 0.00 0.00 0.00 49 1013.3
20260509142519 71 242 8.0 14.0 0.00 0.00 0.00 51 1013.3
20260509141541 69 261 3.0 7.0 0.00 0.00 0.00 55 1013.4
20260509140544 68 260 2.0 4.0 0.00 0.00 0.00 59 1013.4
20260509135523 67 271 2.0 5.0 0.00 0.00 0.00 59 1013.4
20260509134519 66 219 3.0 7.0 0.00 0.00 0.00 61 1013.1
20260509133523 64 227 4.0 8.0 0.00 0.00 0.00 63 1013.0
20260509132520 63 228 2.0 8.0 0.00 0.00 0.00 64 1013.0
20260509131522 62 236 2.0 5.0 0.00 0.00 0.00 65 1013.0
20260509130521 61 216 0.0 2.0 0.00 0.00 0.00 64 1012.9
20260509125520 60 0 0.0 0.0 0.00 0.00 0.00 64 1012.9
20260509124603 58 0 0.0 0.0 0.00 0.00 0.00 67 1012.9
20260509123523 57 0 0.0 0.0 0.00 0.00 0.00 68 1012.7
20260509122541 57 0 0.0 0.0 0.00 0.00 0.00 66 1012.7
20260509121522 56 231 1.0 3.0 0.00 0.00 0.00 67 1012.7
20260509120521 55 150 0.0 2.0 0.00 0.00 0.00 68 1012.6
20260509115525 54 234 0.0 2.0 0.00 0.00 0.00 70 1012.3
20260509114522 57 208 1.0 3.0 0.00 0.00 0.00 65 1011.9
20260509113518 58 225 0.0 3.0 0.00 0.00 0.00 61 1012.1
20260509112546 58 195 1.0 3.0 0.00 0.00 0.00 61 1011.8
20260509111519 58 192 2.0 4.0 0.00 0.00 0.00 61 1011.8
20260509110520 58 196 0.0 3.0 0.00 0.00 0.00 60 1011.9
20260509105520 59 226 1.0 3.0 0.00 0.00 0.00 59 1011.9
20260509104519 60 211 1.0 3.0 0.00 0.00 0.00 56 1011.9
20260509103520 60 222 0.0 2.0 0.00 0.00 0.00 56 1011.8
20260509102540 60 245 1.0 2.0 0.00 0.00 0.00 57 1011.8
20260509101521 59 232 1.0 2.0 0.00 0.00 0.00 57 1011.7
20260509100520 60 219 1.0 3.0 0.00 0.00 0.00 56 1011.6
20260509095520 60 245 0.0 0.0 0.00 0.00 0.00 57 1011.6
20260509094540 61 148 0.0 1.0 0.00 0.00 0.00 55 1011.4
20260509093520 62 124 0.0 1.0 0.00 0.00 0.00 53 1011.4
20260509092520 62 162 0.0 2.0 0.00 0.00 0.00 53 1011.5
20260509091522 62 138 1.0 2.0 0.00 0.00 0.00 53 1011.6
20260509090520 62 138 0.0 2.0 0.00 0.00 0.00 54 1011.6
20260509085520 62 134 1.0 2.0 0.00 0.00 0.00 53 1011.5
20260509084519 62 133 1.0 3.0 0.00 0.00 0.00 52 1011.4
20260509083519 62 139 1.0 3.0 0.00 0.00 0.00 51 1011.3
20260509082522 62 150 1.0 2.0 0.00 0.00 0.00 50 1011.4
20260509081521 63 136 1.0 3.0 0.00 0.00 0.00 47 1011.6
20260509080539 64 136 2.0 3.0 0.00 0.00 0.00 44 1011.7
20260509075518 65 112 1.0 2.0 0.00 0.00 0.00 41 1011.9
20260509074519 65 135 1.0 2.0 0.00 0.00 0.00 39 1011.8
20260509073520 66 132 1.0 2.0 0.00 0.00 0.00 37 1011.8
20260509072519 67 130 1.0 3.0 0.00 0.00 0.00 35 1011.8
20260509071519 67 127 1.0 2.0 0.00 0.00 0.00 33 1011.9
20260509070540 68 118 2.0 4.0 0.00 0.00 0.00 32 1012.0
20260509065520 68 130 1.0 2.0 0.00 0.00 0.00 32 1012.1
20260509064540 68 122 2.0 4.0 0.00 0.00 0.00 33 1012.2
20260509063521 69 110 3.0 4.0 0.00 0.00 0.00 31 1012.3
20260509062521 69 111 4.0 6.0 0.00 0.00 0.00 31 1012.2
20260509061521 69 189 0.0 1.0 0.00 0.00 0.00 35 1012.3
20260509060521 70 111 3.0 6.0 0.00 0.00 0.00 36 1012.3
20260509055521 69 111 3.0 4.0 0.00 0.00 0.00 39 1012.4
20260509054521 68 117 2.0 5.0 0.00 0.00 0.00 49 1012.5
20260509053521 69 160 0.0 1.0 0.00 0.00 0.00 48 1012.6
20260509052523 69 118 0.0 2.0 0.00 0.00 0.00 47 1012.6
20260509051521 69 113 3.0 4.0 0.00 0.00 0.00 48 1012.6
20260509050546 70 100 2.0 4.0 0.00 0.00 0.00 46 1012.4
20260509045522 71 243 1.0 3.0 0.00 0.00 0.00 45 1012.2
20260509044536 73 223 1.0 4.0 0.00 0.00 0.00 43 1012.3
20260509043520 74 198 1.0 4.0 0.00 0.00 0.00 42 1012.4
20260509042540 75 148 0.0 1.0 0.00 0.00 0.00 41 1012.4
20260509041520 77 262 2.0 3.0 0.00 0.00 0.00 39 1012.4
20260509040521 78 304 3.0 7.0 0.00 0.00 0.00 37 1012.4
20260509035520 77 346 4.0 8.0 0.00 0.00 0.00 37 1012.3
20260509034522 75 102 3.0 5.0 0.00 0.00 0.00 39 1012.0
20260509033521 71 35 6.0 12.0 0.00 0.00 0.00 43 1011.7
20260509032520 71 90 0.0 2.0 0.00 0.00 0.00 45 1011.0
20260509031522 72 109 0.0 3.0 0.00 0.00 0.00 41 1010.6
20260509030522 73 187 2.0 6.0 0.00 0.00 0.00 39 1010.3
20260509025521 74 205 3.0 10.0 0.00 0.00 0.00 34 1010.0
20260509024544 75 187 2.0 6.0 0.00 0.00 0.00 31 1009.8
20260509023521 76 176 3.0 6.0 0.00 0.00 0.00 29 1009.7
20260509022521 78 185 4.0 8.0 0.00 0.00 0.00 22 1009.4
20260509021522 79 193 2.0 4.0 0.00 0.00 0.00 19 1009.1
20260509020520 80 197 2.0 4.0 0.00 0.00 0.00 19 1009.0
20260509015520 80 184 1.0 2.0 0.00 0.00 0.00 19 1008.9
20260509014525 81 181 0.0 3.0 0.00 0.00 0.00 19 1008.7
20260509013519 83 188 2.0 4.0 0.00 0.00 0.00 18 1008.6
20260509012523 85 190 1.0 4.0 0.00 0.00 0.00 17 1008.5
20260509011540 86 185 2.0 5.0 0.00 0.00 0.00 16 1008.4
20260509010520 87 195 2.0 5.0 0.00 0.00 0.00 15 1008.3
20260509005520 88 192 3.0 6.0 0.00 0.00 0.00 15 1008.2
20260509004519 88 200 3.0 6.0 0.00 0.00 0.00 15 1008.1
20260509003519 89 186 1.0 5.0 0.00 0.00 0.00 14 1008.1
20260509002521 89 183 2.0 4.0 0.00 0.00 0.00 14 1008.1
20260509001521 91 191 1.0 3.0 0.00 0.00 0.00 14 1008.1
20260509000521 90 187 0.0 3.0 0.00 0.00 0.00 14 1008.1
20260508235523 90 185 1.0 3.0 0.00 0.00 0.00 14 1008.1
20260508234541 89 294 3.0 5.0 0.00 0.00 0.00 14 1008.0
20260508233521 90 243 4.0 8.0 0.00 0.00 0.00 15 1008.0
20260508232522 89 213 1.0 5.0 0.00 0.00 0.00 15 1008.1
20260508231541 90 284 4.0 8.0 0.00 0.00 0.00 14 1008.1
20260508230523 89 294 2.0 5.0 0.00 0.00 0.00 15 1008.1
20260508225521 89 287 7.0 11.0 0.00 0.00 0.00 15 1008.1
20260508224522 89 286 4.0 9.0 0.00 0.00 0.00 15 1008.2
20260508223539 88 52 1.0 4.0 0.00 0.00 0.00 16 1008.3
20260508222519 88 252 5.0 13.0 0.00 0.00 0.00 16 1008.3
20260508221521 89 316 5.0 9.0 0.00 0.00 0.00 16 1008.4
20260508220520 89 155 1.0 3.0 0.00 0.00 0.00 16 1008.4
20260508215522 88 310 6.0 10.0 0.00 0.00 0.00 17 1008.5
20260508214526 88 259 3.0 8.0 0.00 0.00 0.00 17 1008.6
20260508213523 88 257 5.0 9.0 0.00 0.00 0.00 17 1008.7
20260508212519 88 278 5.0 8.0 0.00 0.00 0.00 17 1008.8
20260508211521 88 315 2.0 8.0 0.00 0.00 0.00 17 1009.0
20260508210540 87 247 3.0 6.0 0.00 0.00 0.00 18 1009.1
20260508205520 87 329 4.0 7.0 0.00 0.00 0.00 17 1009.3
20260508204520 88 312 6.0 9.0 0.00 0.00 0.00 18 1009.4
20260508203520 87 196 2.0 6.0 0.00 0.00 0.00 19 1009.5
20260508202521 86 156 2.0 7.0 0.00 0.00 0.00 20 1009.8
20260508201522 86 226 3.0 5.0 0.00 0.00 0.00 19 1010.0
20260508200523 87 261 4.0 11.0 0.00 0.00 0.00 16 1010.1
20260508195541 85 276 1.0 5.0 0.00 0.00 0.00 19 1010.2